Wind_Speed
15 15 14 14 14 15 15 15 16 16 16 16 16 16 18 19 20 20 20 18 16 16 16 17 17 18 18 18 15 14 15 16 18 19 22 22 20 18 18 18 17 17 17
17 17 17 17 17 16 16 15 15 15 15 16 17 18 19 20 20 21 21 20 19 19 19 19 18 19 19 19 17 15 15 16 17 18 21 21 20 19 18 17 17 17 18
18 17 18 19 19 19 18 17 17 16 16 16 18 19 20 20 21 21 21 21 21 21 22 21 21 20 19 19 19 17 16 16 17 18 19 20 20 20 20 20 19 19 19
19 18 19 20 20 21 20 20 19 18 18 18 19 20 21 21 22 21 21 22 22 23 23 23 22 21 20 20 20 19 18 18 18 18 18 19 18 19 20 22 22 22 21
22 21 21 21 21 21 20 20 20 21 21 21 21 22 21 22 22 23 22 23 23 23 24 24 23 22 20 20 20 20 21 19 18 18 18 19 19 19 20 22 24 24 24
26 24 23 23 23 22 21 22 24 25 24 23 23 23 23 23 23 22 22 22 23 23 23 24 23 22 21 20 19 20 20 20 19 19 19 21 22 23 23 23 24 24 25
29 27 26 25 25 24 23 23 25 26 26 24 23 23 23 23 23 23 22 22 22 23 23 23 23 22 21 20 19 19 20 19 19 19 20 22 24 25 25 25 24 24 26
33 31 28 27 27 27 26 25 25 25 25 24 23 22 23 23 23 23 22 22 22 23 23 23 23 22 21 20 19 20 20 19 19 20 22 24 25 26 26 25 25 26 28
36 33 30 29 29 28 27 26 26 25 25 25 25 24 23 22 23 22 22 22 23 23 23 23 22 22 21 20 20 20 20 19 19 19 20 23 25 24 24 26 27 29 30
31 30 30 30 29 29 28 27 27 26 27 28 27 25 24 23 22 22 22 22 23 23 23 22 21 21 20 20 20 21 20 20 20 20 21 23 23 24 25 27 28 28 25
27 27 28 29 29 29 28 28 29 29 30 30 29 27 25 23 22 23 22 22 23 22 22 21 21 20 19 19 19 20 20 21 22 21 22 22 22 23 24 25 26 23 17
28 27 29 30 30 30 30 31 32 32 33 33 31 29 26 25 24 23 22 22 21 21 21 21 20 18 18 18 17 17 19 20 21 21 22 22 22 21 20 18 15 11 9
29 29 31 32 32 32 34 34 35 35 34 34 33 31 28 26 25 24 22 21 20 20 20 20 19 17 17 17 16 15 15 17 18 19 19 19 18 17 14 9 7 7 8
32 32 33 34 35 36 37 37 36 35 34 34 34 32 30 28 27 25 23 21 20 20 20 19 18 17 16 16 14 13 13 14 16 16 16 15 13 10 7 6 6 6 7
32 34 36 37 37 37 36 35 34 33 33 32 32 32 31 29 28 25 23 21 20 19 19 18 17 16 15 15 14 12 11 11 12 12 12 10 8 8 7 7 6 6 6
31 32 33 33 33 33 33 33 33 32 32 32 31 30 30 30 28 26 23 22 20 19 18 17 16 16 15 15 15 13 9 7 7 8 9 10 10 9 8 7 7 7 8
30 31 30 30 31 31 31 31 31 31 31 32 31 30 31 30 28 27 25 23 21 20 19 18 17 17 16 16 16 13 10 7 7 9 10 11 11 9 9 9 8 9 10
31 31 30 30 30 30 29 29 29 30 30 30 30 30 31 31 30 28 27 25 24 22 21 19 19 18 17 17 17 14 11 10 10 11 12 12 12 11 11 11 11 12 13
34 33 32 31 30 29 29 29 29 30 30 29 29 29 31 32 31 30 28 27 25 24 23 21 19 19 18 18 17 14 13 13 14 14 15 15 16 16 15 16 16 16 15
36 35 33 32 32 31 30 29 29 30 28 27 28 28 30 32 32 31 29 27 25 25 24 23 21 19 19 18 17 16 15 16 17 18 19 20 20 21 21 20 20 20 19
37 36 35 34 33 32 31 29 30 29 28 27 27 27 29 30 31 31 29 27 25 25 24 24 23 21 19 18 18 17 16 16 17 18 19 21 23 23 23 23 22 22 21
37 36 35 34 34 33 31 30 29 29 28 27 27 27 27 29 30 30 29 27 25 24 23 23 24 23 21 20 19 17 16 16 16 15 17 19 21 23 24 25 24 24 22
37 36 34 33 33 33 30 29 28 27 26 27 27 28 28 29 29 29 29 28 27 27 25 25 24 24 23 21 20 19 18 17 16 16 16 17 18 21 23 25 26 26 25
37 36 34 33 32 31 30 28 27 26 26 26 26 26 27 27 28 28 28 28 28 28 27 27 26 25 25 24 23 21 20 20 20 20 20 20 19 20 21 24 26 27 27
37 36 36 34 33 32 31 30 29 27 26 26 25 25 25 26 26 27 27 28 28 28 28 28 28 28 27 27 27 26 26 25 24 24 23 23 23 23 22 22 23 25 26
35 36 36 36 36 35 35 34 32 31 30 29 28 28 28 28 27 27 27 27 28 27 27 28 29 29 30 29 30 30 30 30 30 29 28 27 26 26 26 24 24 25 26
Wind_Direction
282 284 286 286 287 289 292 294 295 295 295 298 304 308 305 301 299 296 291 285 284 285 287 288 286 284 286 289 285 276 263 256 258 261 262 263 267 266 256 249 250 253 258
277 282 286 287 287 287 288 288 292 296 298 300 306 311 312 306 302 298 292 284 281 282 283 284 282 280 281 284 286 279 267 259 258 260 261 260 259 258 254 252 255 258 261
277 281 285 287 288 288 287 287 290 295 298 300 304 308 310 308 303 297 289 285 284 284 285 286 283 277 275 276 280 280 271 261 257 259 260 260 257 254 254 256 260 263 265
273 275 278 282 286 287 287 288 289 291 293 294 298 301 304 306 304 299 291 287 287 288 289 289 285 277 271 271 272 275 274 265 259 259 257 257 259 260 259 259 261 264 266
266 267 271 276 280 283 285 288 290 290 290 290 292 295 298 301 301 298 293 289 288 289 291 291 285 277 270 268 268 270 271 268 262 259 257 257 261 267 268 265 263 263 266
262 262 265 271 275 278 282 288 292 291 288 287 289 292 294 296 296 296 294 291 289 289 291 290 285 277 271 267 266 266 269 270 266 260 258 259 262 265 268 268 264 262 265
263 262 265 269 273 276 280 287 293 293 289 287 289 291 293 295 295 295 294 291 289 289 289 288 285 279 272 267 264 264 267 271 270 266 262 259 259 263 266 266 262 263 267
261 259 264 270 274 278 282 288 293 294 292 291 292 293 294 295 294 294 294 291 289 288 286 285 285 281 274 268 265 263 266 271 273 265 259 256 257 261 263 262 260 263 266
259 252 260 268 272 276 281 287 292 292 289 290 293 294 295 294 294 294 293 292 290 287 283 281 283 282 278 272 267 264 266 270 269 259 257 258 263 265 265 263 260 262 263
257 250 258 267 270 274 278 284 287 288 287 288 291 292 291 290 290 293 293 292 292 288 283 281 282 282 280 277 271 265 264 266 264 259 257 262 266 267 264 264 260 258 252
254 255 263 268 269 271 275 280 283 284 285 287 289 290 287 286 286 290 293 293 292 289 283 281 283 281 279 278 276 268 263 264 262 259 259 263 268 270 267 263 257 249 237
258 259 264 267 268 271 275 278 281 282 283 284 286 286 283 281 283 287 290 291 289 286 282 283 283 282 279 280 281 275 267 264 261 260 261 264 269 270 268 259 244 225 208
260 259 262 266 269 273 277 279 281 281 280 280 280 279 276 274 276 281 285 287 285 282 282 283 283 285 284 283 284 283 274 266 262 261 261 263 266 267 258 236 212 199 205
264 261 262 266 271 275 278 280 281 280 279 277 276 273 269 266 268 274 279 282 282 279 279 281 282 286 286 282 283 288 283 272 262 258 257 257 255 243 216 194 192 202 217
266 265 266 269 272 276 279 281 280 279 277 275 272 267 262 260 262 267 273 276 277 276 275 277 281 285 285 281 280 284 287 277 262 254 246 234 216 195 180 183 196 211 232
271 272 272 272 273 275 277 278 277 276 276 274 269 262 256 255 257 262 266 270 273 271 270 272 278 285 286 282 279 275 277 270 247 235 218 199 186 182 187 195 210 229 245
272 272 272 272 273 273 274 274 275 275 274 271 265 258 252 251 253 257 261 264 267 268 268 271 277 284 282 283 279 268 259 245 224 212 204 196 192 197 207 217 230 242 255
271 271 271 272 272 273 273 273 274 275 274 269 261 254 248 247 250 254 257 260 263 265 264 267 273 277 276 277 276 264 246 232 222 216 214 212 211 216 224 235 243 250 258
269 270 270 272 272 272 272 273 274 274 271 265 258 252 246 245 248 252 256 259 260 261 260 262 265 268 269 269 265 258 243 232 226 225 226 228 230 231 235 242 248 255 263
268 270 270 271 271 271 272 272 273 272 268 263 257 250 246 245 248 250 253 256 256 256 257 257 257 260 262 261 254 255 242 234 229 230 232 234 236 238 240 245 250 255 262
269 269 269 269 269 270 270 271 272 269 263 259 255 249 245 244 247 249 251 251 252 253 254 253 252 252 255 256 250 249 242 238 237 238 238 238 239 241 242 245 247 252 258
267 267 266 265 266 267 267 269 270 265 260 255 251 247 243 242 243 246 247 246 248 251 251 248 246 246 250 252 248 243 241 243 246 247 249 250 250 246 245 244 246 250 256
264 264 263 263 263 263 263 265 265 262 258 254 250 247 245 244 243 245 245 246 248 249 247 246 245 245 247 249 247 241 238 236 243 253 259 260 259 256 256 253 252 251 253
260 260 260 260 261 261 260 260 259 256 254 251 249 247 247 246 245 245 246 248 249 247 245 244 244 245 246 247 246 244 242 242 245 251 256 257 256 254 254 255 255 254 254
259 259 258 258 259 259 258 257 255 253 252 250 248 246 246 246 245 245 246 247 248 247 245 243 243 243 244 244 244 244 245 246 249 253 254 254 253 252 249 247 248 251 255
261 260 260 258 257 256 256 256 255 254 253 251 249 248 246 245 245 245 246 246 247 246 246 246 246 246 244 243 243 243 245 247 249 252 254 255 254 252 251 250 250 253 258
Height
5908 5907 5907 5906 5905 5904 5903 5903 5902 5901 5901 5900 5900 5898 5897 5895 5894 5892 5891 5889 5888 5886 5884 5882 5880 5878 5876 5875 5874 5873 5873 5873 5874 5874 5874 5874 5874 5874 5874 5874 5875 5876 5877
5905 5904 5904 5903 5902 5901 5900 5899 5899 5898 5897 5897 5896 5895 5893 5891 5890 5888 5887 5885 5884 5882 5880 5878 5876 5874 5873 5872 5871 5870 5870 5870 5870 5869 5870 5870 5870 5870 5871 5871 5872 5872 5873
5900 5900 5900 5899 5898 5898 5897 5896 5895 5894 5894 5893 5892 5890 5889 5887 5885 5884 5883 5881 5880 5878 5876 5874 5872 5870 5869 5868 5867 5866 5866 5866 5866 5866 5866 5866 5866 5867 5867 5868 5868 5868 5869
5896 5896 5895 5895 5894 5894 5893 5892 5891 5891 5890 5889 5887 5886 5884 5882 5880 5879 5878 5877 5875 5873 5871 5869 5867 5866 5865 5864 5863 5862 5861 5861 5861 5861 5861 5862 5862 5862 5863 5864 5864 5864 5865
5892 5892 5891 5891 5890 5889 5889 5888 5888 5887 5886 5885 5884 5881 5879 5877 5876 5874 5873 5872 5871 5869 5867 5864 5863 5861 5860 5860 5859 5859 5857 5856 5856 5857 5857 5858 5858 5858 5859 5859 5859 5859 5860
5887 5887 5887 5886 5886 5885 5884 5884 5883 5883 5882 5880 5879 5877 5875 5873 5872 5870 5869 5867 5866 5865 5863 5860 5858 5857 5856 5855 5855 5854 5854 5852 5851 5852 5852 5853 5853 5853 5854 5854 5854 5855 5855
5882 5881 5881 5881 5880 5879 5879 5879 5878 5877 5877 5875 5874 5872 5871 5869 5867 5865 5864 5863 5862 5860 5858 5856 5854 5852 5851 5851 5850 5850 5850 5849 5848 5847 5847 5848 5848 5848 5849 5849 5849 5850 5850
5875 5875 5874 5874 5873 5873 5873 5873 5872 5871 5871 5871 5870 5867 5865 5864 5862 5860 5859 5858 5857 5855 5854 5851 5850 5848 5847 5846 5845 5845 5845 5845 5844 5842 5840 5840 5842 5843 5843 5843 5844 5844 5844
5865 5866 5868 5867 5867 5866 5866 5866 5866 5865 5864 5865 5864 5863 5861 5859 5857 5856 5854 5853 5852 5850 5849 5847 5845 5844 5843 5841 5841 5840 5840 5840 5839 5837 5836 5836 5837 5837 5837 5838 5838 5839 5838
5857 5858 5860 5860 5860 5860 5860 5859 5859 5859 5858 5858 5858 5857 5856 5854 5852 5850 5849 5848 5846 5845 5843 5842 5841 5840 5838 5837 5836 5836 5836 5835 5835 5835 5834 5834 5833 5833 5832 5832 5832 5832 5832
5851 5851 5852 5852 5852 5853 5853 5853 5853 5852 5852 5851 5851 5850 5850 5849 5847 5846 5844 5843 5841 5840 5838 5837 5836 5835 5834 5833 5832 5831 5831 5831 5831 5831 5830 5830 5829 5829 5828 5827 5826 5826 5827
5843 5843 5843 5844 5845 5845 5845 5845 5845 5845 5845 5845 5844 5844 5843 5843 5842 5841 5839 5837 5836 5835 5834 5833 5831 5830 5830 5829 5828 5826 5826 5826 5826 5826 5825 5825 5825 5824 5823 5822 5822 5823 5825
5835 5835 5836 5836 5837 5837 5837 5837 5838 5837 5837 5837 5837 5836 5836 5836 5836 5835 5833 5832 5830 5830 5829 5828 5827 5826 5825 5825 5824 5822 5821 5821 5821 5821 5821 5821 5820 5820 5820 5820 5821 5823 5825
5827 5827 5828 5828 5828 5829 5828 5828 5829 5829 5829 5829 5828 5828 5828 5829 5830 5829 5828 5826 5825 5825 5824 5824 5823 5822 5822 5821 5820 5818 5817 5817 5817 5817 5817 5817 5818 5818 5819 5820 5821 5823 5825
5819 5819 5820 5820 5820 5820 5819 5819 5819 5819 5819 5819 5820 5820 5820 5821 5823 5823 5822 5821 5821 5820 5820 5819 5819 5818 5818 5817 5817 5816 5815 5814 5814 5814 5814 5815 5816 5818 5819 5820 5822 5823 5823
5810 5811 5811 5811 5811 5811 5811 5810 5810 5810 5810 5810 5811 5811 5812 5814 5816 5816 5816 5815 5815 5815 5815 5815 5815 5814 5814 5814 5813 5813 5812 5811 5811 5812 5813 5814 5815 5817 5819 5820 5821 5821 5822
5801 5802 5802 5802 5802 5802 5802 5802 5801 5801 5801 5801 5802 5803 5805 5807 5808 5809 5810 5810 5810 5810 5810 5810 5810 5810 5810 5810 5810 5809 5809 5809 5809 5810 5811 5813 5814 5816 5817 5818 5819 5820 5820
5793 5794 5794 5794 5794 5793 5793 5793 5792 5792 5792 5792 5793 5795 5797 5799 5801 5802 5803 5803 5804 5804 5805 5805 5805 5806 5806 5806 5806 5806 5806 5806 5807 5808 5809 5811 5812 5814 5815 5816 5817 5817 5818
5785 5785 5785 5785 5785 5785 5785 5784 5784 5783 5783 5784 5785 5787 5789 5791 5793 5794 5795 5796 5797 5798 5799 5800 5800 5801 5801 5802 5802 5802 5803 5803 5804 5805 5807 5808 5810 5811 5812 5813 5814 5815 5815
5775 5775 5775 5776 5776 5776 5776 5776 5775 5775 5775 5776 5777 5779 5781 5783 5785 5787 5788 5789 5790 5791 5793 5794 5795 5796 5796 5797 5797 5798 5799 5800 5801 5802 5803 5804 5806 5807 5809 5810 5810 5811 5811
5765 5765 5766 5766 5767 5767 5767 5767 5767 5767 5767 5768 5769 5771 5773 5775 5778 5780 5781 5783 5784 5785 5786 5787 5789 5790 5791 5791 5792 5793 5794 5795 5796 5797 5798 5800 5801 5803 5804 5805 5805 5806 5807
5755 5755 5756 5757 5757 5758 5758 5758 5759 5759 5760 5761 5762 5763 5765 5767 5770 5772 5774 5776 5777 5778 5780 5781 5782 5784 5785 5786 5787 5788 5789 5791 5792 5793 5794 5795 5796 5797 5798 5799 5800 5801 5802
5745 5746 5747 5748 5748 5749 5750 5750 5751 5752 5752 5754 5755 5757 5758 5760 5762 5764 5766 5768 5770 5772 5773 5775 5776 5777 5779 5781 5782 5783 5785 5786 5787 5788 5789 5789 5790 5791 5792 5793 5794 5795 5797
5735 5736 5738 5739 5740 5741 5741 5742 5743 5744 5745 5747 5748 5750 5751 5753 5755 5757 5759 5761 5762 5764 5766 5768 5770 5771 5773 5774 5776 5777 5779 5781 5782 5783 5784 5784 5785 5785 5786 5787 5788 5789 5791
5724 5726 5728 5729 5731 5732 5733 5734 5735 5737 5738 5740 5741 5743 5744 5746 5748 5749 5751 5753 5754 5756 5758 5760 5762 5764 5765 5767 5769 5771 5772 5774 5776 5777 5778 5779 5779 5779 5780 5780 5781 5783 5784
5714 5716 5718 5719 5721 5722 5724 5725 5727 5728 5730 5732 5734 5736 5737 5739 5741 5742 5744 5745 5747 5748 5750 5752 5754 5756 5758 5759 5761 5763 5765 5767 5769 5771 5772 5772 5773 5774 5774 5775 5775 5776 5778